This is the latest recevied weather packets stored in our database for station/object EA1IDU-11. If no packets are shown the sender has not sent any weather packets the latest 1 day(s).
| Time | Temp. | Humidity | Pressure | Rain* | Wind** | Luminosity | Snow |
|---|---|---|---|---|---|---|---|
| 1777892279 | 12.22° C | 58% | 1022.3 hPa | - | - | - | - |
| 1777891379 | 12.78° C | 58% | 1022.3 hPa | - | - | - | - |
| 1777890479 | 12.78° C | 58% | 1022.1 hPa | - | - | - | - |
| 1777889579 | 12.78° C | 57% | 1022 hPa | - | - | - | - |
| 1777888679 | 13.33° C | 56% | 1022.1 hPa | - | - | - | - |
| 1777887779 | 16.11° C | 55% | 1021.8 hPa | - | - | - | - |
| 1777886879 | 17.22° C | 57% | 1021.7 hPa | - | - | - | - |
| 1777885978 | 17.78° C | 57% | 1021.6 hPa | - | - | - | - |
| 1777885078 | 17.78° C | 57% | 1021.6 hPa | - | - | - | - |
| 1777884178 | 17.78° C | 59% | 1021.5 hPa | - | - | - | - |
| 1777883278 | 17.78° C | 59% | 1021.4 hPa | - | - | - | - |
| 1777882378 | 18.33° C | 58% | 1021.3 hPa | - | - | - | - |
| 1777881478 | 17.78° C | 60% | 1021.3 hPa | - | - | - | - |
| 1777880578 | 16.67° C | 59% | 1021.2 hPa | - | - | - | - |
| 1777879678 | 15° C | 59% | 1021.3 hPa | - | - | - | - |
| 1777878778 | 14.44° C | 59% | 1021.3 hPa | - | - | - | - |
| 1777877878 | 14.44° C | 59% | 1021.3 hPa | - | - | - | - |
| 1777876978 | 14.44° C | 58% | 1021.1 hPa | - | - | - | - |
| 1777876077 | 13.89° C | 58% | 1021.2 hPa | - | - | - | - |
| 1777875177 | 12.78° C | 58% | 1021.1 hPa | - | - | - | - |
| 1777874277 | 12.78° C | 58% | 1020.9 hPa | - | - | - | - |
| 1777873377 | 12.22° C | 58% | 1020.8 hPa | - | - | - | - |
| 1777872477 | 12.22° C | 58% | 1020.7 hPa | - | - | - | - |
| 1777871577 | 12.22° C | 58% | 1020.5 hPa | - | - | - | - |
| 1777870677 | 12.22° C | 58% | 1020.7 hPa | - | - | - | - |
* Rain since midnight (hover to see other rain measurements)
** Current wind speed in m/s (hover to see current wind gust speed)